Find Starlink 1067

NORAD ID: 44771 Int'l Des: 2019-074 Owner: SPXS Country: US Constellation: starlink operational
LEOCIRCULAR

Current View

Loading 3D Globe...

About Starlink 1067

Description loading...

Upcoming Passes

Passes for default location (London). Set your location on the main map for personalized predictions.

Altitude History

Loading altitude history...

Two-Line Element Set

1 44771U 19074BL 26149.31851990 .00084586 00000-0 60539-3 0 9999
2 44771 53.0420 168.0931 0006993 355.0967 4.9981 15.72998963361144
Epoch: May 29, 2026 • Age: 23 hours

Current Status

Altitude 366.6 km
Velocity 7.69 km/s
Sub-Earth Point -51.65°S, 111.83°E
Launch Date Nov 11, 2019
Age 6.5 years
Type internet

Technical Details

Classification Payload
Mass 260.00 kg
Dry Mass 248.00 kg
Total Mass 260.00 kg
Length 0.20 m
Diameter 2.80 m
Span 9.00 m
Shape Box + pan
Manufacturer SPXS
Bus Type Starlink
Phase Status In Orbit
Owner/State SPXS/US

Most Searched